Starlink 31879

operational
NORAD ID: 59937 Int'l Des: 2024-106 Owner: SPXS Country: US Constellation: starlink
LEOCIRCULAR

About Starlink 31879

Description loading...

Live Position

Loading 3D Globe...

Upcoming Passes

Altitude History

Altitude vs Time

uPlot chart will show altitude changes over time

Two-Line Element Set

1 59937U 24106R 25257.31587024 .00004337 00000-0 16705-3 0 9996
2 59937 43.0014 249.0170 0000997 273.7618 86.3120 15.27577146 73598
Epoch: Sep 14, 2025 • Age: 26 hours

Current Status

Altitude 493.7 km
Velocity 7.62 km/s
Sub-Earth Point -37.88°S, 21.96°W
Launch Date Jun 1, 2024
Age 1.2 years
Type internet

Technical Details

Classification Payload
Mass 730.00 kg
Dry Mass 700.00 kg
Total Mass 730.00 kg
Length 0.30 m
Diameter 4.10 m
Span 29.00 m
Shape Box + pan
Manufacturer SPXS
Bus Type Starlink V2M
Phase Status In Orbit
Owner/State SPXS/US

Large Constellations

Loading constellations...